Zurück zum Katalog

STARLINK-35595

AktivKommunikationVLEO
NORAD 66101·PAYLOAD·🇺🇸 United States

Gestartet Oct 19, 2025 von Vandenberg Space Force Base

Loading…

Nächste Überflüge (nächste 24 Stunden)

TLE

AktuellSource: CelesTrak SupGP

Epoche: Sep 14, 2026, 15:23 UTC

1 66101C 25236R   26257.64145833  .00032954  00000+0  97394-3 0  2572
2 66101  53.1572 303.2381 0001259  77.4801   5.3009 15.34364183    19

Verfolge STARLINK-35595 in Echtzeit mit AllMySat

Download on the App Store